Tracking 30509 objects as of 21-May-2025
HD Live streaming from Space Station
objects crossing your sky now

THOR ABLESTAR DEB

Track THOR ABLESTAR DEB now!
10-day predictions


NORAD ID: 119
Int'l Code: 1961-015D
Perigee: 737.6 km
Apogee: 883.1 km
Inclination: 66.7 °
Period: 100.9 minutes
Semi major axis: 7181 km
RCS: 0.2611 m2 (medium)
Launch date: June 29, 1961
Source: United States (US)
Launch site: AIR FORCE EASTERN TEST RANGE (AFETR)

Note: This is SATELLITE DEBRIS
Your satellite tracking list
Your tracking list is empty




NASA's NSSDC Master Catalog

Two Line Element Set (TLE):
1 00119U 61015D   25140.87350648  .00000297  00000-0  14982-3 0  9992
2 00119  66.7272 328.6595 0101337 188.6160 171.3202 14.26570129302341
Source of the keplerian elements: AFSPC